Kapaa, HI

3:36 PM HST on March 29, 2015 (GMT -1000)
Lihue | | Change Station
CLOSE
Current Station
Airport
Location: Lihue,
Elevation: 102 ft
Nearby Weather Stations
Active Advisory: High Surf Advisory

Elev 102 ft 21.98 °N, 159.34 °W | Updated 43 minutes ago

Overcast
Overcast
79 °F
Feels Like 79 °F
N
9
Wind Variable Wind from ENE

Today
High -- | Low -- °F
--% Chance of Precip.
Yesterday
High -- | Low -- °F
Precip. -- in
6:32 AM 6:51 PM
Waxing Gibbous, 75% visible
Pressure 30.13 in
Visibility 10.0 miles
Clouds Mostly Cloudy 1800 ft
Overcast 5000 ft
Dew Point 68 °F
Humidity 69%
Rainfall 0.07 in
Snow Depth Not available.
UV 3 out of 12
Pollen Not available.
Air Quality Not available.
Flu Activity Not available.
METAR PHLI 300053Z 06008KT 10SM BKN018 OVC050 26/20 A3014 RMK AO2 SLP202 T02610200 $

More Conditions Fewer Conditions

Pressure 30.13 in
Visibility 10.0 miles
Clouds Mostly Cloudy 1800 ft
Overcast 5000 ft
Dew Point 68 °F
Humidity 69%
Rainfall 0.07 in
Snow Depth Not available.
UV 3 out of 12
Pollen Not available.
Air Quality Not available.
Flu Activity Not available.
METAR PHLI 300053Z 06008KT 10SM BKN018 OVC050 26/20 A3014 RMK AO2 SLP202 T02610200 $

More Conditions Fewer Conditions

10-Day Weather Forecast

Almanac

Astronomy

Mar. 29, 2015 Rise Set
Actual Time
Civil Twilight
Nautical Twilight
Astronomical Twilight
Moon
Length of Visible Light
Length of Day
Tomorrow will be .
, % of the Moon is Illuminated

Today's Extremes

State Highs State Lows

Community

WunderPhotos

Upload Photos

1,809,392 photos uploaded!

WunderBlogs® & News

Nearby

Air Quality

  Air Quality AQ Index Pollutant
Not available.

Snow Depth

Station Depth Elevation

Earthquake Activity

City Distance Mag. Time & Date
Minimum magnitude displayed is 2.5.

Coastal Water Temperatures

Place Temperature

Stations

Nearby Weather Stations

Station Location Temp. Windchill Dew Point Humidity Wind Precip. Elev Updated Type
                   
High Surf Advisory
Statement as of 3:34 PM HST on March 29, 2015

... High surf advisory remains in effect until 6 am HST Monday...

A high surf advisory remains in effect until 6 am HST Monday.

* Surf... 12 to 16 feet on north and west facing shores of Kauai
and Niihau... and 10 to 15 feet on north facing shores of
Oahu... Molokai and Maui.

* Timing... through tonight.

* Impacts... moderate... expect strong breaking waves... shore
break... and strong longshore and rip currents making swimming
difficult and dangerous.

Precautionary/preparedness actions...

Beachgoers... swimmers... and surfers should heed all advice given
by ocean safety officials and exercise caution.



Birchard